This is the latest recevied weather packets stored in our database for station/object KC4JIR. If no packets are shown the sender has not sent any weather packets the latest 10 day(s).
| Time | Temp. | Humidity | Pressure | Rain* | Wind** | Luminosity | Snow |
|---|---|---|---|---|---|---|---|
| 1788541442 | 32.22° C | 70% | 1014.2 hPa | 0 mm | - | 390 W/m² | - |
| 1788541136 | 31.67° C | 72% | 1014.1 hPa | 0 mm | - | 294 W/m² | - |
| 1788540836 | 31.11° C | 74% | 1014.3 hPa | 0 mm | - | 903 W/m² | - |
| 1788540530 | 31.11° C | 75% | 1014.5 hPa | 0 mm | - | 196 W/m² | - |
| 1788540230 | 31.67° C | 73% | 1014.6 hPa | 0 mm | - | 144 W/m² | - |
| 1788539927 | 31.11° C | 76% | 1014.6 hPa | 0 mm | - | 273 W/m² | - |
| 1788539626 | 31.67° C | 75% | 1014.4 hPa | 0 mm | - | 138 W/m² | - |
| 1788539325 | 31.67° C | 74% | 1014.5 hPa | 0 mm | - | 493 W/m² | - |
| 1788539021 | 31.67° C | 75% | 1014.5 hPa | 0 mm | - | 235 W/m² | - |
| 1788538716 | 31.67° C | 76% | 1014.5 hPa | 0 mm | - | 903 W/m² | - |
| 1788538411 | 30.56° C | 76% | 1014.5 hPa | 0 mm | - | 415 W/m² | - |
| 1788538107 | 30.56° C | 77% | 1014.5 hPa | 0 mm | - | 653 W/m² | - |
| 1788537807 | 30.56° C | 77% | 1014.7 hPa | 0 mm | - | 1068 W/m² | - |
| 1788537502 | 30.56° C | 79% | 1014.5 hPa | 0 mm | - | 1002 W/m² | - |
| 1788537196 | 30° C | 80% | 1014.7 hPa | 0 mm | - | 963 W/m² | - |
| 1788536895 | 30.56° C | 80% | 1014.8 hPa | 0 mm | - | 167 W/m² | - |
| 1788536590 | 30° C | 81% | 1014.8 hPa | 0 mm | - | 761 W/m² | - |
| 1788536285 | 30° C | 81% | 1014.8 hPa | 0 mm | - | 285 W/m² | - |
| 1788535981 | 30.56° C | 81% | 1014.8 hPa | 0 mm | - | 1034 W/m² | - |
| 1788535677 | 30° C | 81% | 1014.7 hPa | 0 mm | - | 927 W/m² | - |
| 1788535372 | 30° C | 81% | 1014.9 hPa | 0 mm | - | 903 W/m² | - |
| 1788535067 | 30° C | 82% | 1014.7 hPa | 0 mm | - | 649 W/m² | - |
| 1788534766 | 28.89° C | 86% | 1014.8 hPa | 0 mm | - | 814 W/m² | - |
| 1788534462 | 29.44° C | 85% | 1014.8 hPa | 0 mm | - | 210 W/m² | - |
| 1788534157 | 29.44° C | 84% | 1014.7 hPa | 0 mm | - | 898 W/m² | - |
* Rain latest hour (hover to see other rain measurements)
** Current wind speed in m/s (hover to see current wind gust speed)